"Data set title: Gaging station water sample data. Usage: Event based table used with water chemistry collection from 01-Oct-2017 to 30-Sep-2018",,,,,,,,,,,,
,,,,,,,,,,,,,
"Site","Date","RecNum","SiteID","Flag_SiteID","LOGGERID","PROGID","VNOTCH_INST_0_0_01","Flag_VNOTCH_INST_0_0_01","SAMPLE_INST_0_0_01","Flag_SAMPLE_INST_0_0_01","STAGE_INST_0_0_01","Flag_STAGE_INST_0_0_01"
"","yyyy-MM-dd HH:mm:ss","count","","none","none","none","none","none","count","none","ft","none"
"nominal","datetime","nominal","data","code","nominal","nominal","data","code","data","code","data","code"
"GSWS06_118",2017-10-01 02:46:45,723,106.00,"",118,51868.0,0,"",18,"",0.0260,""
"GSWS06_118",2017-10-01 16:04:45,724,106.00,"",118,51868.0,0,"",19,"",0.0270,""
"GSWS06_118",2017-10-02 05:22:45,725,106.00,"",118,51868.0,0,"",20,"",0.0250,""
"GSWS06_118",2017-10-02 18:40:45,726,106.00,"",118,51868.0,0,"",21,"",0.0240,""
"GSWS06_118",2017-10-03 07:58:45,727,106.00,"",118,51868.0,0,"",22,"",0.0240,""
"GSWS06_118",2017-10-03 21:16:45,728,106.00,"",118,51868.0,0,"",23,"",0.0220,""
"GSWS06_118",2017-10-04 10:34:45,729,106.00,"",118,51868.0,0,"",24,"",0.0230,""
"GSWS06_118",2017-10-04 23:52:45,730,106.00,"",118,51868.0,0,"",25,"",0.0220,""
"GSWS06_118",2017-10-05 13:10:45,731,106.00,"",118,51868.0,0,"",26,"",0.0220,""
"GSWS06_118",2017-10-06 02:28:45,732,106.00,"",118,51868.0,0,"",27,"",0.0220,""
"GSWS06_118",2017-10-06 15:46:45,733,106.00,"",118,51868.0,0,"",28,"",0.0210,""
"GSWS06_118",2017-10-07 05:04:45,734,106.00,"",118,51868.0,0,"",29,"",0.0210,""
"GSWS06_118",2017-10-07 18:22:45,735,106.00,"",118,51868.0,0,"",30,"",0.0220,""
"GSWS06_118",2017-10-08 07:40:45,736,106.00,"",118,51868.0,0,"",31,"",0.0240,""
"GSWS06_118",2017-10-08 20:58:45,737,106.00,"",118,51868.0,0,"",32,"",0.0220,""
"GSWS06_118",2017-10-09 10:16:45,738,106.00,"",118,51868.0,0,"",33,"",0.0220,""
"GSWS06_118",2017-10-09 23:34:45,739,106.00,"",118,51868.0,0,"",34,"",0.0200,""
"GSWS06_118",2017-10-10 12:52:45,740,106.00,"",118,51868.0,0,"",35,"",0.0200,""
"GSWS06_118",2017-10-11 02:10:45,741,106.00,"",118,51868.0,0,"",1,"",0.0210,""
"GSWS06_118",2017-10-11 15:28:45,742,106.00,"",118,51868.0,0,"",2,"",0.0330,""
"GSWS06_118",2017-10-12 04:46:45,743,106.00,"",118,51868.0,0,"",3,"",0.0240,""
"GSWS06_118",2017-10-12 18:04:45,744,106.00,"",118,51868.0,0,"",4,"",0.1320,""
"GSWS06_118",2017-10-13 07:22:45,745,106.00,"",118,51868.0,0,"",5,"",0.0810,""
"GSWS06_118",2017-10-13 20:40:45,746,106.00,"",118,51868.0,0,"",6,"",0.0690,""
"GSWS06_118",2017-10-14 09:58:45,747,106.00,"",118,51868.0,0,"",7,"",0.0510,""
"GSWS06_118",2017-10-14 23:16:45,748,106.00,"",118,51868.0,0,"",8,"",0.0430,""
"GSWS06_118",2017-10-15 12:34:45,749,106.00,"",118,51868.0,0,"",9,"",0.0390,""
"GSWS06_118",2017-10-16 01:52:45,750,106.00,"",118,51868.0,0,"",10,"",0.0360,""
"GSWS06_118",2017-10-16 15:10:45,751,106.00,"",118,51868.0,0,"",11,"",0.0330,""
"GSWS06_118",2017-10-17 04:28:45,752,106.00,"",118,51868.0,0,"",12,"",0.0330,""
"GSWS06_118",2017-10-17 17:46:45,753,106.00,"",118,51868.0,0,"",13,"",0.0310,""
"GSWS06_118",2017-10-18 07:04:45,754,106.00,"",118,51868.0,0,"",14,"",0.0320,""
"GSWS06_118",2017-10-18 20:22:45,755,106.00,"",118,51868.0,0,"",15,"",0.0310,""
"GSWS06_118",2017-10-19 09:40:45,756,106.00,"",118,51868.0,0,"",16,"",0.0310,""
"GSWS06_118",2017-10-19 22:58:45,757,106.00,"",118,51868.0,0,"",17,"",0.0770,""
"GSWS06_118",2017-10-20 12:16:45,758,106.00,"",118,51868.0,0,"",18,"",0.0990,""
"GSWS06_118",2017-10-21 01:34:45,759,106.00,"",118,51868.0,0,"",19,"",0.0790,""
"GSWS06_118",2017-10-21 14:52:45,760,106.00,"",118,51868.0,0,"",20,"",0.2550,""
"GSWS06_118",2017-10-22 03:02:45,761,106.00,"",118,51868.0,0,"",21,"",0.3510,""
"GSWS06_118",2017-10-22 07:28:45,762,106.00,"",118,51868.0,0,"",22,"",0.5310,""
"GSWS06_118",2017-10-22 14:06:45,763,106.00,"",118,51868.0,0,"",23,"",0.4460,""
"GSWS06_118",2017-10-22 20:44:45,764,106.00,"",118,51868.0,0,"",24,"",0.3630,""
"GSWS06_118",2017-10-23 10:02:45,765,106.00,"",118,51868.0,0,"",25,"",0.2910,""
"GSWS06_118",2017-10-23 23:20:45,766,106.00,"",118,51868.0,0,"",26,"",0.2360,""
"GSWS06_118",2017-10-24 12:38:45,767,106.00,"",118,51868.0,0,"",27,"",0.2090,""
"GSWS06_118",2017-10-25 01:56:45,768,106.00,"",118,51868.0,0,"",28,"",0.1910,""
"GSWS06_118",2017-10-26 00:13:45,0,106.00,"",118,8527.0,0,"",1,"",0.1680,""
"GSWS06_118",2017-10-26 13:31:45,1,106.00,"",118,8527.0,0,"",2,"",0.1610,""
"GSWS06_118",2017-10-27 02:49:45,2,106.00,"",118,8527.0,0,"",3,"",0.1520,""
"GSWS06_118",2017-10-27 16:07:45,3,106.00,"",118,8527.0,0,"",4,"",0.1430,""
"GSWS06_118",2017-10-28 05:25:45,4,106.00,"",118,8527.0,0,"",5,"",0.1390,""
"GSWS06_118",2017-10-28 18:43:45,5,106.00,"",118,8527.0,0,"",6,"",0.1330,""
"GSWS06_118",2017-10-29 08:01:45,6,106.00,"",118,8527.0,0,"",7,"",0.1310,""
"GSWS06_118",2017-10-29 21:19:45,7,106.00,"",118,8527.0,0,"",8,"",0.1280,""
"GSWS06_118",2017-10-30 10:37:45,8,106.00,"",118,8527.0,0,"",9,"",0.1240,""
"GSWS06_118",2017-10-30 23:55:45,9,106.00,"",118,8527.0,0,"",10,"",0.1200,""
"GSWS06_118",2017-10-31 13:13:45,10,106.00,"",118,8527.0,0,"",11,"",0.1160,""
"GSWS06_118",2017-11-01 02:31:45,11,106.00,"",118,8527.0,0,"",12,"",0.1150,""
"GSWS06_118",2017-11-01 15:49:45,12,106.00,"",118,8527.0,0,"",13,"",0.1110,""
"GSWS06_118",2017-11-01 16:05:30,13,106.00,"",118,8527.0,0,"",14,"",0.1110,""
"GSWS06_118",2017-11-01 16:10:00,14,106.00,"",118,8527.0,0,"",15,"",0.1110,""
"GSWS06_118",2017-11-02 05:07:45,15,106.00,"",118,8527.0,0,"",1,"",0.1100,""
"GSWS06_118",2017-11-02 18:25:45,16,106.00,"",118,8527.0,0,"",2,"",0.1240,""
"GSWS06_118",2017-11-03 07:43:45,17,106.00,"",118,8527.0,0,"",3,"",0.1190,""
"GSWS06_118",2017-11-03 21:01:45,18,106.00,"",118,8527.0,0,"",4,"",0.1160,""
"GSWS06_118",2017-11-04 10:19:45,19,106.00,"",118,8527.0,0,"",5,"",0.1110,""
"GSWS06_118",2017-11-04 23:37:45,20,106.00,"",118,8527.0,0,"",6,"",0.1070,""
"GSWS06_118",2017-11-05 12:55:45,21,106.00,"",118,8527.0,0,"",7,"",0.1080,""
"GSWS06_118",2017-11-06 02:13:45,22,106.00,"",118,8527.0,0,"",8,"",0.1060,""
"GSWS06_118",2017-11-06 15:31:45,23,106.00,"",118,8527.0,0,"",9,"",0.1200,""
"GSWS06_118",2017-11-07 04:49:45,24,106.00,"",118,8527.0,0,"",10,"",0.1100,""
"GSWS06_118",2017-11-07 18:07:45,25,106.00,"",118,8527.0,0,"",11,"",0.1080,""
"GSWS06_118",2017-11-08 07:25:45,26,106.00,"",118,8527.0,0,"",12,"",0.1070,""
"GSWS06_118",2017-11-08 20:43:45,27,106.00,"",118,8527.0,0,"",13,"",0.1150,""
"GSWS06_118",2017-11-09 10:01:45,28,106.00,"",118,8527.0,0,"",14,"",0.1620,""
"GSWS06_118",2017-11-09 23:19:45,29,106.00,"",118,8527.0,0,"",15,"",0.1620,""
"GSWS06_118",2017-11-10 12:37:45,30,106.00,"",118,8527.0,0,"",16,"",0.2270,""
"GSWS06_118",2017-11-11 01:55:45,31,106.00,"",118,8527.0,0,"",17,"",0.2560,""
"GSWS06_118",2017-11-11 15:13:45,32,106.00,"",118,8527.0,0,"",18,"",0.2550,""
"GSWS06_118",2017-11-12 04:31:45,33,106.00,"",118,8527.0,0,"",19,"",0.2430,""
"GSWS06_118",2017-11-12 17:49:45,34,106.00,"",118,8527.0,0,"",20,"",0.2300,""
"GSWS06_118",2017-11-13 07:07:45,35,106.00,"",118,8527.0,0,"",21,"",0.2400,""
"GSWS06_118",2017-11-13 20:25:45,36,106.00,"",118,8527.0,0,"",22,"",0.2350,""
"GSWS06_118",2017-11-14 09:43:45,37,106.00,"",118,8527.0,0,"",23,"",0.2470,""
"GSWS06_118",2017-11-14 23:01:45,38,106.00,"",118,8527.0,0,"",24,"",0.2530,""
"GSWS06_118",2017-11-15 12:19:45,39,106.00,"",118,8527.0,0,"",25,"",0.2540,""
"GSWS06_118",2017-11-16 01:37:45,40,106.00,"",118,8527.0,0,"",26,"",0.2660,""
"GSWS06_118",2017-11-16 14:55:45,41,106.00,"",118,8527.0,0,"",27,"",0.2920,""
"GSWS06_118",2017-11-17 04:13:45,42,106.00,"",118,8527.0,0,"",28,"",0.2870,""
"GSWS06_118",2017-11-17 17:31:45,43,106.00,"",118,8527.0,0,"",29,"",0.2930,""
"GSWS06_118",2017-11-18 06:49:45,44,106.00,"",118,8527.0,0,"",30,"",0.2880,""
"GSWS06_118",2017-11-18 20:07:45,45,106.00,"",118,8527.0,0,"",31,"",0.2810,""
"GSWS06_118",2017-11-19 09:25:45,46,106.00,"",118,8527.0,0,"",32,"",0.2710,""
"GSWS06_118",2017-11-19 22:43:45,47,106.00,"",118,8527.0,0,"",33,"",0.2790,""
"GSWS06_118",2017-11-20 05:21:45,48,106.00,"",118,8527.0,0,"",34,"",0.3520,""
"GSWS06_118",2017-11-20 10:13:30,49,106.00,"",118,8527.0,0,"",35,"",0.5070,""
"GSWS06_118",2017-11-20 14:39:30,50,106.00,"",118,8527.0,0,"",36,"",0.5860,""
"GSWS06_118",2017-11-20 19:05:30,51,106.00,"",118,8527.0,0,"",37,"",0.5880,""
"GSWS06_118",2017-11-20 23:31:30,52,106.00,"",118,8527.0,0,"",38,"",0.5840,""
"GSWS06_118",2017-11-21 03:57:30,53,106.00,"",118,8527.0,0,"",39,"",0.5800,""
"GSWS06_118",2017-11-21 08:23:30,54,106.00,"",118,8527.0,0,"",40,"",0.5610,""
"GSWS06_118",2017-11-21 09:43:00,55,106.00,"",118,8527.0,0,"",41,"",0.5570,""
"GSWS06_118",2017-11-21 12:49:30,56,106.00,"",118,8527.0,0,"",1,"",0.5400,""
"GSWS06_118",2017-11-21 17:15:30,57,106.00,"",118,8527.0,0,"",2,"",0.5290,""
"GSWS06_118",2017-11-21 21:41:30,58,106.00,"",118,8527.0,0,"",3,"",0.5150,""
"GSWS06_118",2017-11-22 04:19:30,59,106.00,"",118,8527.0,0,"",4,"",0.4920,""
"GSWS06_118",2017-11-22 10:57:30,60,106.00,"",118,8527.0,0,"",5,"",0.4710,""
"GSWS06_118",2017-11-22 17:35:30,61,106.00,"",118,8527.0,0,"",6,"",0.4650,""
"GSWS06_118",2017-11-23 00:13:30,62,106.00,"",118,8527.0,0,"",7,"",0.4390,""
"GSWS06_118",2017-11-23 06:51:30,63,106.00,"",118,8527.0,0,"",8,"",0.4550,""
"GSWS06_118",2017-11-23 11:39:00,64,106.00,"",118,8527.0,0,"",9,"",0.5070,""
"GSWS06_118",2017-11-23 16:29:15,65,106.00,"",118,8527.0,0,"",10,"",0.5070,""
"GSWS06_118",2017-11-23 20:55:15,66,106.00,"",118,8527.0,0,"",11,"",0.5350,""
"GSWS06_118",2017-11-24 01:21:15,67,106.00,"",118,8527.0,0,"",12,"",0.5410,""
"GSWS06_118",2017-11-24 05:47:15,68,106.00,"",118,8527.0,0,"",13,"",0.5340,""
"GSWS06_118",2017-11-24 10:13:15,69,106.00,"",118,8527.0,0,"",14,"",0.5200,""
"GSWS06_118",2017-11-24 14:39:15,70,106.00,"",118,8527.0,0,"",15,"",0.5100,""
"GSWS06_118",2017-11-24 21:17:15,71,106.00,"",118,8527.0,0,"",16,"",0.4900,""
"GSWS06_118",2017-11-25 03:55:15,72,106.00,"",118,8527.0,0,"",17,"",0.4730,""
"GSWS06_118",2017-11-25 10:33:15,73,106.00,"",118,8527.0,0,"",18,"",0.4690,""
"GSWS06_118",2017-11-25 17:11:15,74,106.00,"",118,8527.0,0,"",19,"",0.4390,""
"GSWS06_118",2017-11-25 23:49:15,75,106.00,"",118,8527.0,0,"",20,"",0.4130,""
"GSWS06_118",2017-11-26 06:27:15,76,106.00,"",118,8527.0,0,"",21,"",0.3890,""
"GSWS06_118",2017-11-26 13:05:15,77,106.00,"",118,8527.0,0,"",22,"",0.4020,""
"GSWS06_118",2017-11-26 19:43:15,78,106.00,"",118,8527.0,0,"",23,"",0.3670,""
"GSWS06_118",2017-11-27 09:01:15,79,106.00,"",118,8527.0,0,"",24,"",0.3320,""
"GSWS06_118",2017-11-27 22:19:15,80,106.00,"",118,8527.0,0,"",25,"",0.3150,""
"GSWS06_118",2017-11-28 11:37:15,81,106.00,"",118,8527.0,0,"",26,"",0.3020,""
"GSWS06_118",2017-11-29 00:55:15,82,106.00,"",118,8527.0,0,"",27,"",0.2980,""
"GSWS06_118",2017-11-29 14:13:15,83,106.00,"",118,8527.0,0,"",28,"",0.2910,""
"GSWS06_118",2017-11-30 03:31:15,84,106.00,"",118,8527.0,0,"",29,"",0.2870,""
"GSWS06_118",2017-11-30 16:49:15,85,106.00,"",118,8527.0,0,"",30,"",0.2840,""
"GSWS06_118",2017-12-01 06:07:15,86,106.00,"",118,8527.0,0,"",31,"",0.2870,""
"GSWS06_118",2017-12-01 19:25:15,87,106.00,"",118,8527.0,0,"",32,"",0.2740,""
"GSWS06_118",2017-12-02 08:43:15,88,106.00,"",118,8527.0,0,"",33,"",0.2640,""
"GSWS06_118",2017-12-02 22:01:15,89,106.00,"",118,8527.0,0,"",34,"",0.2550,""
"GSWS06_118",2017-12-03 11:19:15,90,106.00,"",118,8527.0,0,"",35,"",0.2450,""
"GSWS06_118",2017-12-04 00:37:15,91,106.00,"",118,8527.0,0,"",36,"",0.2340,""
"GSWS06_118",2017-12-04 13:55:15,92,106.00,"",118,8527.0,0,"",37,"",0.2270,""
"GSWS06_118",2017-12-05 03:13:15,93,106.00,"",118,8527.0,0,"",38,"",0.2190,""
"GSWS06_118",2017-12-05 16:31:15,94,106.00,"",118,8527.0,0,"",39,"",0.2160,""
"GSWS06_118",2017-12-06 05:49:15,95,106.00,"",118,8527.0,0,"",40,"",0.2090,""
"GSWS06_118",2017-12-06 19:07:15,96,106.00,"",118,8527.0,0,"",41,"",0.2020,""
"GSWS06_118",2017-12-07 08:25:15,97,106.00,"",118,8527.0,0,"",42,"",0.1960,""
"GSWS06_118",2017-12-07 21:43:15,98,106.00,"",118,8527.0,0,"",43,"",0.1900,""
"GSWS06_118",2017-12-08 11:01:15,99,106.00,"",118,8527.0,0,"",44,"",0.1850,""
"GSWS06_118",2017-12-09 00:19:15,100,106.00,"",118,8527.0,0,"",45,"",0.1810,""
"GSWS06_118",2017-12-09 13:37:15,101,106.00,"",118,8527.0,0,"",46,"",0.1770,""
"GSWS06_118",2017-12-10 02:55:15,102,106.00,"",118,8527.0,0,"",47,"",0.1730,""
"GSWS06_118",2017-12-10 16:13:15,103,106.00,"",118,8527.0,0,"",48,"",0.1680,""
"GSWS06_118",2017-12-11 05:31:15,104,106.00,"",118,8527.0,0,"",49,"",0.1640,""
"GSWS06_118",2017-12-11 18:49:15,105,106.00,"",118,8527.0,0,"",50,"",0.1620,""
"GSWS06_118",2017-12-12 08:07:15,106,106.00,"",118,8527.0,0,"",51,"",0.1620,""
"GSWS06_118",2017-12-12 21:25:15,107,106.00,"",118,8527.0,0,"",52,"",0.1570,""
"GSWS06_118",2017-12-13 10:43:15,108,106.00,"",118,8527.0,0,"",53,"",0.1530,""
"GSWS06_118",2017-12-13 17:33:45,109,106.00,"",118,8527.0,0,"",54,"",0.1510,""
"GSWS06_118",2017-12-14 07:49:45,0,106.00,"",118,32272.0,0,"",1,"",0.1450,""
"GSWS06_118",2017-12-14 21:07:45,1,106.00,"",118,32272.0,0,"",2,"",0.1410,""
"GSWS06_118",2017-12-15 10:25:45,2,106.00,"",118,32272.0,0,"",3,"",0.1390,""
"GSWS06_118",2017-12-15 23:43:45,3,106.00,"",118,32272.0,0,"",4,"",0.1370,""
"GSWS06_118",2017-12-16 13:01:45,4,106.00,"",118,32272.0,0,"",5,"",0.1350,""
"GSWS06_118",2017-12-17 02:19:45,5,106.00,"",118,32272.0,0,"",6,"",0.1320,""
"GSWS06_118",2017-12-17 15:37:45,6,106.00,"",118,32272.0,0,"",7,"",0.1300,""
"GSWS06_118",2017-12-18 04:55:45,7,106.00,"",118,32272.0,0,"",8,"",0.1280,""
"GSWS06_118",2017-12-18 18:13:45,8,106.00,"",118,32272.0,0,"",9,"",0.1270,""
"GSWS06_118",2017-12-19 07:31:45,9,106.00,"",118,32272.0,0,"",10,"",0.1260,""
"GSWS06_118",2017-12-19 20:49:45,10,106.00,"",118,32272.0,0,"",11,"",0.1290,""
"GSWS06_118",2017-12-20 10:07:45,11,106.00,"",118,32272.0,0,"",12,"",0.1240,""
"GSWS06_118",2017-12-21 12:43:45,12,106.00,"",118,32272.0,0,"",13,"",0.1220,""
"GSWS06_118",2017-12-22 02:01:45,13,106.00,"",118,32272.0,0,"",14,"",0.1210,""
"GSWS06_118",2017-12-22 15:19:45,14,106.00,"",118,32272.0,0,"",15,"",0.1200,""
"GSWS06_118",2017-12-23 04:37:45,15,106.00,"",118,32272.0,0,"",16,"",0.1180,""
"GSWS06_118",2017-12-23 17:55:45,16,106.00,"",118,32272.0,0,"",17,"",0.1200,""
"GSWS06_118",2017-12-24 07:13:45,17,106.00,"",118,32272.0,0,"",18,"",0.1170,""
"GSWS06_118",2017-12-24 20:31:45,18,106.00,"",118,32272.0,0,"",19,"",0.1200,""
"GSWS06_118",2017-12-25 09:49:45,19,106.00,"",118,32272.0,0,"",20,"",0.1350,""
"GSWS06_118",2017-12-25 23:07:45,20,106.00,"",118,32272.0,0,"",21,"",0.1290,""
"GSWS06_118",2017-12-26 12:25:45,21,106.00,"",118,32272.0,0,"",22,"",0.1240,""
"GSWS06_118",2017-12-27 01:43:45,22,106.00,"",118,32272.0,0,"",23,"",0.1220,""
"GSWS06_118",2017-12-27 15:01:45,23,106.00,"",118,32272.0,0,"",24,"",0.1240,""
"GSWS06_118",2017-12-28 04:19:45,24,106.00,"",118,32272.0,0,"",25,"",0.1270,""
"GSWS06_118",2017-12-28 17:37:45,25,106.00,"",118,32272.0,0,"",26,"",0.1330,""
"GSWS06_118",2017-12-29 06:55:45,26,106.00,"",118,32272.0,0,"",27,"",0.2090,""
"GSWS06_118",2017-12-29 20:13:45,27,106.00,"",118,32272.0,0,"",28,"",0.3340,""
"GSWS06_118",2017-12-30 02:51:45,28,106.00,"",118,32272.0,0,"",29,"",0.3790,""
"GSWS06_118",2017-12-30 09:29:45,29,106.00,"",118,32272.0,0,"",30,"",0.3900,""
"GSWS06_118",2017-12-30 16:07:45,30,106.00,"",118,32272.0,0,"",31,"",0.3740,""
"GSWS06_118",2017-12-30 22:45:45,31,106.00,"",118,32272.0,0,"",32,"",0.3510,""
"GSWS06_118",2017-12-31 12:03:45,32,106.00,"",118,32272.0,0,"",33,"",0.3170,""
"GSWS06_118",2018-01-01 01:21:45,33,106.00,"",118,32272.0,0,"",34,"",0.2980,""
"GSWS06_118",2018-01-01 14:39:45,34,106.00,"",118,32272.0,0,"",35,"",0.2850,""
"GSWS06_118",2018-01-02 03:57:45,35,106.00,"",118,32272.0,0,"",36,"",0.2780,""
"GSWS06_118",2018-01-02 17:15:45,36,106.00,"",118,32272.0,0,"",37,"",0.2630,""
"GSWS06_118",2018-01-03 06:33:45,37,106.00,"",118,32272.0,0,"",38,"",0.2500,""
"GSWS06_118",2018-01-03 17:04:45,38,106.00,"",118,32272.0,0,"",39,"",0.2410,""
"GSWS06_118",2018-01-03 19:51:45,39,106.00,"",118,32272.0,0,"",1,"",0.2380,""
"GSWS06_118",2018-01-04 09:09:45,40,106.00,"",118,32272.0,0,"",2,"",0.2290,""
"GSWS06_118",2018-01-04 22:27:45,41,106.00,"",118,32272.0,0,"",3,"",0.2190,""
"GSWS06_118",2018-01-05 11:45:45,42,106.00,"",118,32272.0,0,"",4,"",0.2110,""
"GSWS06_118",2018-01-06 01:03:45,43,106.00,"",118,32272.0,0,"",5,"",0.2020,""
"GSWS06_118",2018-01-06 14:21:45,44,106.00,"",118,32272.0,0,"",6,"",0.1950,""
"GSWS06_118",2018-01-07 03:39:45,45,106.00,"",118,32272.0,0,"",7,"",0.1880,""
"GSWS06_118",2018-01-07 16:57:45,46,106.00,"",118,32272.0,0,"",8,"",0.1830,""
"GSWS06_118",2018-01-08 06:15:45,47,106.00,"",118,32272.0,0,"",9,"",0.1800,""
"GSWS06_118",2018-01-08 19:33:45,48,106.00,"",118,32272.0,0,"",10,"",0.1760,""
"GSWS06_118",2018-01-09 08:51:45,49,106.00,"",118,32272.0,0,"",11,"",0.1810,""
"GSWS06_118",2018-01-09 22:09:45,50,106.00,"",118,32272.0,0,"",12,"",0.1730,""
"GSWS06_118",2018-01-10 11:27:45,51,106.00,"",118,32272.0,0,"",13,"",0.1680,""
"GSWS06_118",2018-01-11 00:45:45,52,106.00,"",118,32272.0,0,"",14,"",0.1690,""
"GSWS06_118",2018-01-11 14:03:45,53,106.00,"",118,32272.0,0,"",15,"",0.2870,""
"GSWS06_118",2018-01-11 21:40:45,54,106.00,"",118,32272.0,0,"",16,"",0.3510,""
"GSWS06_118",2018-01-12 04:18:45,55,106.00,"",118,32272.0,0,"",17,"",0.3840,""
"GSWS06_118",2018-01-12 10:56:45,56,106.00,"",118,32272.0,0,"",18,"",0.3830,""
"GSWS06_118",2018-01-12 17:34:45,57,106.00,"",118,32272.0,0,"",19,"",0.3750,""
"GSWS06_118",2018-01-13 00:12:45,58,106.00,"",118,32272.0,0,"",20,"",0.3600,""
"GSWS06_118",2018-01-13 13:30:45,59,106.00,"",118,32272.0,0,"",21,"",0.3380,""
"GSWS06_118",2018-01-14 02:48:45,60,106.00,"",118,32272.0,0,"",22,"",0.3210,""
"GSWS06_118",2018-01-14 16:06:45,61,106.00,"",118,32272.0,0,"",23,"",0.3060,""
"GSWS06_118",2018-01-15 05:24:45,62,106.00,"",118,32272.0,0,"",24,"",0.2940,""
"GSWS06_118",2018-01-15 18:42:45,63,106.00,"",118,32272.0,0,"",25,"",0.2890,""
"GSWS06_118",2018-01-16 08:00:45,64,106.00,"",118,32272.0,0,"",26,"",0.2710,""
"GSWS06_118",2018-01-16 21:18:45,65,106.00,"",118,32272.0,0,"",27,"",0.2550,""
"GSWS06_118",2018-01-17 10:36:45,66,106.00,"",118,32272.0,0,"",28,"",0.2430,""
"GSWS06_118",2018-01-17 23:54:45,67,106.00,"",118,32272.0,0,"",29,"",0.2430,""
"GSWS06_118",2018-01-18 13:12:45,68,106.00,"",118,32272.0,0,"",30,"",0.2430,""
"GSWS06_118",2018-01-19 02:30:45,69,106.00,"",118,32272.0,0,"",31,"",0.2400,""
"GSWS06_118",2018-01-19 15:48:45,70,106.00,"",118,32272.0,0,"",32,"",0.2380,""
"GSWS06_118",2018-01-20 05:06:45,71,106.00,"",118,32272.0,0,"",33,"",0.2400,""
"GSWS06_118",2018-01-20 18:24:45,72,106.00,"",118,32272.0,0,"",34,"",0.2390,""
"GSWS06_118",2018-01-21 07:42:45,73,106.00,"",118,32272.0,0,"",35,"",0.2380,""
"GSWS06_118",2018-01-21 21:00:45,74,106.00,"",118,32272.0,0,"",36,"",0.2700,""
"GSWS06_118",2018-01-22 10:18:45,75,106.00,"",118,32272.0,0,"",37,"",0.2740,""
"GSWS06_118",2018-01-22 23:36:45,76,106.00,"",118,32272.0,0,"",38,"",0.2940,""
"GSWS06_118",2018-01-23 12:54:45,77,106.00,"",118,32272.0,0,"",39,"",0.3010,""
"GSWS06_118",2018-01-23 15:44:45,78,106.00,"",118,32272.0,0,"",40,"",0.3090,""
"GSWS06_118",2018-01-24 02:12:45,79,106.00,"",118,32272.0,0,"",1,"",0.3450,""
"GSWS06_118",2018-01-24 08:50:45,80,106.00,"",118,32272.0,0,"",2,"",0.4140,""
"GSWS06_118",2018-01-24 15:28:45,81,106.00,"",118,32272.0,0,"",3,"",0.4660,""
"GSWS06_118",2018-01-24 22:06:45,82,106.00,"",118,32272.0,0,"",4,"",0.4960,""
"GSWS06_118",2018-01-25 04:44:45,83,106.00,"",118,32272.0,0,"",5,"",0.5040,""
"GSWS06_118",2018-01-25 11:22:45,84,106.00,"",118,32272.0,0,"",6,"",0.4980,""
"GSWS06_118",2018-01-25 18:00:45,85,106.00,"",118,32272.0,0,"",7,"",0.4800,""
"GSWS06_118",2018-01-26 00:38:45,86,106.00,"",118,32272.0,0,"",8,"",0.4610,""
"GSWS06_118",2018-01-26 07:16:45,87,106.00,"",118,32272.0,0,"",9,"",0.4380,""
"GSWS06_118",2018-01-26 13:54:45,88,106.00,"",118,32272.0,0,"",10,"",0.4200,""
"GSWS06_118",2018-01-26 20:32:45,89,106.00,"",118,32272.0,0,"",11,"",0.3960,""
"GSWS06_118",2018-01-27 03:10:45,90,106.00,"",118,32272.0,0,"",12,"",0.3800,""
"GSWS06_118",2018-01-27 09:48:45,91,106.00,"",118,32272.0,0,"",13,"",0.4330,""
"GSWS06_118",2018-01-27 16:26:45,92,106.00,"",118,32272.0,0,"",14,"",0.4630,""
"GSWS06_118",2018-01-27 23:04:45,93,106.00,"",118,32272.0,0,"",15,"",0.4970,""
"GSWS06_118",2018-01-28 03:30:45,94,106.00,"",118,32272.0,0,"",16,"",0.5290,""
"GSWS06_118",2018-01-28 10:08:45,95,106.00,"",118,32272.0,0,"",17,"",0.4970,""
"GSWS06_118",2018-01-28 15:36:15,96,106.00,"",118,32272.0,0,"",18,"",0.5070,""
"GSWS06_118",2018-01-28 20:02:15,97,106.00,"",118,32272.0,0,"",19,"",0.5140,""
"GSWS06_118",2018-01-29 00:28:15,98,106.00,"",118,32272.0,0,"",20,"",0.5100,""
"GSWS06_118",2018-01-29 04:54:15,99,106.00,"",118,32272.0,0,"",21,"",0.5080,""
"GSWS06_118",2018-01-29 11:32:15,100,106.00,"",118,32272.0,0,"",22,"",0.4990,""
"GSWS06_118",2018-01-29 18:10:15,101,106.00,"",118,32272.0,0,"",23,"",0.4860,""
"GSWS06_118",2018-01-30 00:48:15,102,106.00,"",118,32272.0,0,"",24,"",0.4870,""
"GSWS06_118",2018-01-30 07:26:15,103,106.00,"",118,32272.0,0,"",25,"",0.4760,""
"GSWS06_118",2018-01-30 14:04:15,104,106.00,"",118,32272.0,0,"",26,"",0.4700,""
"GSWS06_118",2018-01-30 20:42:15,105,106.00,"",118,32272.0,0,"",27,"",0.4790,""
"GSWS06_118",2018-01-31 03:20:15,106,106.00,"",118,32272.0,0,"",28,"",0.4610,""
"GSWS06_118",2018-01-31 09:58:15,107,106.00,"",118,32272.0,0,"",29,"",0.4420,""
"GSWS06_118",2018-01-31 16:36:15,108,106.00,"",118,32272.0,0,"",30,"",0.4240,""
"GSWS06_118",2018-01-31 23:14:15,109,106.00,"",118,32272.0,0,"",31,"",0.4070,""
"GSWS06_118",2018-02-01 05:52:15,110,106.00,"",118,32272.0,0,"",32,"",0.3870,""
"GSWS06_118",2018-02-01 12:30:15,111,106.00,"",118,32272.0,0,"",33,"",0.3700,""
"GSWS06_118",2018-02-01 19:08:15,112,106.00,"",118,32272.0,0,"",34,"",0.3550,""
"GSWS06_118",2018-02-02 08:26:15,113,106.00,"",118,32272.0,0,"",35,"",0.3320,""
"GSWS06_118",2018-02-02 21:44:15,114,106.00,"",118,32272.0,0,"",36,"",0.3120,""
"GSWS06_118",2018-02-03 11:02:15,115,106.00,"",118,32272.0,0,"",37,"",0.2970,""
"GSWS06_118",2018-02-04 00:20:15,116,106.00,"",118,32272.0,0,"",38,"",0.2870,""
"GSWS06_118",2018-02-04 13:38:15,117,106.00,"",118,32272.0,0,"",39,"",0.2790,""
"GSWS06_118",2018-02-05 02:56:15,118,106.00,"",118,32272.0,0,"",40,"",0.2660,""
"GSWS06_118",2018-02-05 16:14:15,119,106.00,"",118,32272.0,0,"",41,"",0.2530,""
"GSWS06_118",2018-02-06 05:32:15,120,106.00,"",118,32272.0,0,"",42,"",0.2430,""
"GSWS06_118",2018-02-06 18:50:15,121,106.00,"",118,32272.0,0,"",43,"",0.2330,""
"GSWS06_118",2018-02-07 08:08:15,122,106.00,"",118,32272.0,0,"",44,"",0.2260,""
"GSWS06_118",2018-02-07 21:26:15,123,106.00,"",118,32272.0,0,"",45,"",0.2170,""
"GSWS06_118",2018-02-08 10:44:15,124,106.00,"",118,32272.0,0,"",46,"",0.2110,""
"GSWS06_118",2018-02-09 00:02:15,125,106.00,"",118,32272.0,0,"",47,"",0.2040,""
"GSWS06_118",2018-02-09 13:20:15,126,106.00,"",118,32272.0,0,"",48,"",0.1980,""
"GSWS06_118",2018-02-10 02:38:15,127,106.00,"",118,32272.0,0,"",49,"",0.1920,""
"GSWS06_118",2018-02-10 15:56:15,128,106.00,"",118,32272.0,0,"",50,"",0.1850,""
"GSWS06_118",2018-02-11 05:14:15,129,106.00,"",118,32272.0,0,"",51,"",0.1840,""
"GSWS06_118",2018-02-11 18:32:15,130,106.00,"",118,32272.0,0,"",52,"",0.1790,""
"GSWS06_118",2018-02-12 07:50:15,131,106.00,"",118,32272.0,0,"",53,"",0.1730,""
"GSWS06_118",2018-02-12 21:08:15,132,106.00,"",118,32272.0,0,"",54,"",0.1680,""
"GSWS06_118",2018-02-13 10:26:15,133,106.00,"",118,32272.0,0,"",55,"",0.1640,""
"GSWS06_118",2018-02-13 23:44:15,134,106.00,"",118,32272.0,0,"",56,"",0.1610,""
"GSWS06_118",2018-02-14 13:02:15,135,106.00,"",118,32272.0,0,"",57,"",0.1600,""
"GSWS06_118",2018-02-14 13:52:15,136,106.00,"",118,32272.0,0,"",58,"",0.1600,""